[[{"header":{"parameterUnit":"m.s-1","parameterCategory":1,"la1":30.2991,"la2":30.254,"lo1":-89.0895,"lo2":-89.0444,"dy":0.0017,"dx":0.0017,"nx":28,"ny":28,"refTime":"2024-08-26T09:00:00:Z","depth":0,"parameterNumber":2,"parameterNumberName":"U-component_of_WINDS"},"data":[0,0,0,0,0,0,0,0,0,0,0,0,0,0,0,0,0,0,0,0,0,0,0,0,0,0,0,0,0,0,0,0,0,0,0,0,0,0,0,0,0,0,0,0,0,0,0,0,0,0,0,0,0,0,0,0,0,0,-2.649,-2.6491,0,-2.6584,-2.6585,-2.6586,-2.6594,-2.6592,-2.6591,-2.659,-2.6688,-2.6692,-2.6695,0,0,0,0,0,0,0,0,0,0,0,0,0,-2.6317,-2.632,-2.649,-2.6491,-2.6492,-2.6584,-2.6585,-2.6587,-2.6594,-2.6592,-2.6591,-2.659,-2.6687,-2.6691,-2.6695,0,0,0,0,0,0,0,0,0,0,0,0,0,-2.64,-2.6321,-2.649,-2.6507,-2.6509,-2.6584,-2.6585,-2.6587,-2.6594,-2.6592,-2.6591,-2.6589,-2.6685,-2.6691,-2.6696,-2.676,0,0,-2.6712,-2.6715,0,0,0,0,0,0,0,0,-2.6395,-2.6406,-2.6503,-2.6506,-2.6509,-2.6575,-2.656,-2.6645,-2.6594,-2.6562,-2.659,-2.6589,-2.6652,-2.666,-2.6681,-2.6765,-2.6769,-2.6713,-2.6716,-2.6718,-2.672,0,0,0,0,0,0,0,-2.6389,-2.6402,-2.6527,-2.6504,-2.6508,-2.651,-2.652,-2.6576,-2.6614,-2.6565,-2.6565,-2.6576,-2.6653,-2.6676,-2.6683,-2.677,-2.6713,-2.6717,-2.6721,-2.6723,-2.6912,-2.6914,0,0,0,0,0,0,-2.638,-2.6397,-2.6524,-2.653,-2.6447,-2.6515,-2.6526,-2.6556,-2.6614,-2.6621,-2.6578,-2.6576,-2.6668,-2.6677,-2.6687,-2.6765,-2.6718,-2.6723,-2.6726,-2.691,-2.6912,-2.6914,0,0,0,0,0,0,-2.6376,-2.6391,-2.652,-2.6464,-2.648,-2.6519,-2.6553,-2.6558,-2.6581,-2.6624,-2.6631,-2.6594,-2.6667,-2.6679,-2.6742,-2.6769,-2.6726,-2.6731,-2.6908,-2.6911,-2.6913,-2.6923,0,0,0,0,0,0,-2.6371,-2.639,-2.6414,-2.6464,-2.6483,-2.6573,-2.6554,-2.6561,-2.659,-2.6589,-2.6641,-2.6648,-2.6666,-2.6734,-2.6747,-2.6775,-2.6735,-2.6906,-2.6909,-2.6912,-2.6921,-2.6926,-2.693,0,0,0,0,0,-2.6365,-2.6414,-2.6415,-2.6431,-2.6515,-2.6575,-2.6586,-2.6606,-2.6592,-2.6617,-2.6645,-2.6646,-2.6764,-2.674,-2.6755,-2.6786,-2.6904,-2.6908,-2.6912,-2.6918,-2.6925,-2.693,0,0,0,0,0,0,-2.6366,-2.642,-2.6423,-2.6489,-2.6527,-2.6576,-2.6608,-2.6612,-2.6655,-2.6653,-2.6677,-2.6688,-2.675,-2.6774,-2.6747,-2.6851,-2.6833,-2.684,-2.6832,-2.6839,-2.6844,-2.6836,-2.6739,0,0,0,0,0,-2.6374,-2.6417,-2.6463,-2.6517,-2.6536,-2.6569,-2.6596,-2.6608,-2.6649,-2.6665,-2.6697,-2.6737,-2.6783,-2.6812,-2.6857,-2.6925,-2.6936,-2.6953,-2.6958,-2.6962,-2.6968,-2.7005,-2.7013,-2.6928,-2.6928,-2.6927,0,0,-2.639,-2.6425,-2.6452,-2.6518,-2.6549,-2.6594,-2.6582,-2.663,-2.6664,-2.6672,-2.6733,-2.6758,-2.6804,-2.6869,-2.69,-2.6892,-2.6994,-2.6967,-2.697,-2.6974,-2.701,-2.7018,-2.7025,-2.693,-2.693,-2.6929,0,0,-2.6443,-2.6474,-2.6522,-2.6553,-2.6601,-2.6622,-2.6634,-2.6682,-2.6699,-2.676,-2.6768,-2.6809,-2.6888,-2.692,-2.6947,-2.7013,-2.7016,-2.7027,-2.7052,-2.7089,-2.7095,-2.7101,-2.7124,-2.7132,-2.7033,-2.7033,-2.7033,0,-2.6457,-2.6525,-2.6546,-2.6594,-2.6623,-2.6633,-2.6682,-2.6712,-2.6771,-2.6791,-2.6782,-2.6881,-2.6913,-2.6985,-2.7002,-2.7024,-2.7037,-2.702,-2.7093,-2.7099,-2.7105,-2.7127,-2.7135,-2.7034,-2.7034,-2.7034,-2.7034,0,-2.654,-2.6587,-2.662,-2.6677,-2.671,-2.6758,-2.6787,-2.6818,-2.6829,-2.6851,-2.6914,-2.6953,-2.7005,-2.7024,-2.7035,-2.7099,-2.7092,-2.7088,-2.7069,-2.7114,-2.7135,-2.7143,-2.7036,-2.7035,-2.7035,-2.7035,0,0,-2.6594,-2.6662,-2.6674,-2.67,-2.6753,-2.679,-2.6839,-2.6891,-2.6916,-2.6958,-2.6999,-2.7067,-2.7063,-2.7093,-2.7108,-2.714,-2.7189,-2.7131,-2.7133,-2.714,-2.7262,-2.7264,-2.7273,-2.7192,-2.7194,-2.7195,-2.7257,0,-2.6651,-2.6738,-2.6759,-2.6833,-2.6877,-2.6888,-2.6931,-2.6968,-2.6992,-2.7033,-2.7059,-2.7105,-2.7097,-2.7116,-2.7148,-2.7176,-2.7214,-2.7172,-2.7231,-2.7233,-2.7217,-2.7284,-2.7286,-2.7343,-2.7266,-2.7267,-2.7268,0,-2.6729,-2.6772,-2.685,-2.6898,-2.6917,-2.6955,-2.7004,-2.7043,-2.7086,-2.7101,-2.7136,-2.7147,-2.72,-2.718,-2.7252,-2.7224,-2.725,-2.7267,-2.727,-2.7275,-2.7252,-2.7289,-2.7361,-2.7369,-2.7282,-2.7281,-2.728,0,-2.6759,-2.6836,-2.6893,-2.6915,-2.6972,-2.6999,-2.7024,-2.7066,-2.7096,-2.7139,-2.7158,-2.7208,-2.7234,-2.7272,-2.7297,-2.7281,-2.7367,-2.735,-2.7381,-2.738,-2.7397,-2.7395,-2.7472,-2.7416,-2.7416,-2.7416,-2.7416,0,-2.682,-2.6868,-2.6907,-2.6942,-2.6995,-2.702,-2.7073,-2.7098,-2.7136,-2.7176,-2.7189,-2.7227,-2.7258,-2.7301,-2.7321,-2.7377,-2.739,-2.7403,-2.7408,-2.7401,-2.7399,-2.7417,-2.7413,-2.7418,-2.7418,-2.7417,-2.7417,0,-2.6862,-2.689,-2.6953,-2.7002,-2.7016,-2.7053,-2.7095,-2.713,-2.7154,-2.7205,-2.7218,-2.7256,-2.7307,-2.7336,-2.74,-2.7414,-2.7476,-2.748,-2.7461,-2.7463,-2.7491,-2.7487,-2.7581,-2.7594,-2.753,-2.7531,-2.7532,0,-2.6898,-2.6935,-2.6988,-2.7015,-2.7041,-2.7086,-2.7116,-2.7142,-2.7173,-2.7226,-2.7254,-2.7305,-2.7347,-2.7428,-2.7462,-2.7511,-2.7515,-2.7544,-2.7522,-2.7514,-2.7514,-2.751,-2.7514,-2.7547,-2.7548,-2.7548,-2.7549,0,-2.6959,-2.6971,-2.7014,-2.7062,-2.7098,-2.7137,-2.7176,-2.7198,-2.7231,-2.7265,-2.7317,-2.735,-2.7415,-2.7466,-2.7518,-2.7545,-2.7552,-2.7556,-2.7565,-2.7558,-2.7545,-2.7551,-2.747,-2.7553,-2.7552,-2.7552,-2.7552,-2.7552,-2.6998,-2.7031,-2.7074,-2.7121,-2.7153,-2.7189,-2.7224,-2.7252,-2.7295,-2.735,-2.7364,-2.7417,-2.7461,-2.7532,-2.756,-2.7603,-2.7598,-2.7612,-2.7615,-2.7618,-2.7618,-2.754,-2.7613,-2.7613,-2.7613,-2.7613,-2.7613,0,-2.7059,-2.7087,-2.713,-2.7184,-2.7221,-2.7226,-2.7269,-2.73,-2.7347,-2.7387,-2.7428,-2.7487,-2.7537,-2.7575,-2.7626,-2.7653,-2.7658,-2.7665,-2.7663,-2.7669,-2.762,-2.7606,-2.7661,-2.7661,-2.7661,-2.7661,-2.7661,-2.7661,-2.7095,-2.715,-2.7168,-2.724,-2.7268,-2.732,-2.7344,-2.7378,-2.741,-2.7475,-2.7516,-2.754,-2.758,-2.7634,-2.7679,-2.7689,-2.7707,-2.7714,-2.7724,-2.7678,-2.7672,-2.7667,-2.7654,-2.7718,-2.7718,-2.7769,-2.777,-2.777]},{"header":{"parameterUnit":"m.s-1","parameterCategory":1,"la1":30.2991,"la2":30.254,"lo1":-89.0895,"lo2":-89.0444,"dy":0.0017,"dx":0.0017,"nx":28,"ny":28,"refTime":"2024-08-26T09:00:00:Z","depth":0,"parameterNumber":3,"parameterNumberName":"V-component_of_WINDS"},"data":[0,0,0,0,0,0,0,0,0,0,0,0,0,0,0,0,0,0,0,0,0,0,0,0,0,0,0,0,0,0,0,0,0,0,0,0,0,0,0,0,0,0,0,0,0,0,0,0,0,0,0,0,0,0,0,0,0,0,2.1031,2.103,0,2.0947,2.0946,2.0945,2.0911,2.0911,2.0911,2.0911,2.0817,2.0815,2.0812,0,0,0,0,0,0,0,0,0,0,0,0,0,2.1152,2.115,2.1031,2.103,2.1029,2.0947,2.0946,2.0945,2.0911,2.0911,2.0911,2.0911,2.0818,2.0815,2.0812,0,0,0,0,0,0,0,0,0,0,0,0,0,2.1087,2.115,2.1031,2.1002,2.0998,2.0948,2.0946,2.0945,2.091,2.0911,2.0911,2.0911,2.0819,2.0815,2.0811,2.0781,0,0,2.0799,2.0797,0,0,0,0,0,0,0,0,2.1091,2.1083,2.1007,2.1004,2.1,2.094,2.0955,2.0889,2.091,2.0944,2.0911,2.0911,2.0857,2.085,2.0834,2.0776,2.0772,2.0799,2.0796,2.0794,2.0793,0,0,0,0,0,0,0,2.1095,2.1086,2.0997,2.1006,2.1002,2.099,2.0981,2.0942,2.0899,2.0941,2.0938,2.0929,2.0855,2.0837,2.0831,2.0771,2.0799,2.0795,2.0793,2.0791,2.0683,2.0683,0,0,0,0,0,0,2.1106,2.109,2.1,2.0995,2.1047,2.0988,2.0978,2.0959,2.09,2.0891,2.0929,2.0928,2.0844,2.0836,2.0828,2.0787,2.0794,2.0791,2.0788,2.0683,2.0683,2.0682,0,0,0,0,0,0,2.1109,2.1098,2.1003,2.1042,2.1029,2.0986,2.0964,2.0957,2.0939,2.0891,2.0883,2.0919,2.0844,2.0833,2.0793,2.0784,2.0789,2.0785,2.0684,2.0683,2.0683,2.0707,0,0,0,0,0,0,2.1112,2.1099,2.1089,2.1042,2.1027,2.0973,2.0964,2.0955,2.0933,2.0931,2.088,2.0871,2.0843,2.0799,2.0789,2.0778,2.0782,2.0685,2.0684,2.0683,2.0707,2.0707,2.0708,0,0,0,0,0,2.1117,2.1098,2.1089,2.1078,2.1014,2.0972,2.0964,2.0934,2.0933,2.0921,2.089,2.0873,2.0787,2.0795,2.0784,2.0771,2.0685,2.0684,2.0683,2.0707,2.0707,2.0708,0,0,0,0,0,0,2.1142,2.1091,2.1081,2.1046,2.1014,2.0967,2.0951,2.0936,2.0901,2.09,2.0863,2.0852,2.0814,2.0789,2.0799,2.0738,2.0734,2.0731,2.0756,2.0756,2.0757,2.0763,2.0779,0,0,0,0,0,2.1144,2.1118,2.1073,2.1047,2.1032,2.0994,2.0975,2.0956,2.092,2.0905,2.0871,2.0835,2.0799,2.0776,2.0741,2.0703,2.069,2.0689,2.0689,2.069,2.0687,2.0664,2.0662,2.0679,2.0679,2.0679,0,0,2.1147,2.1116,2.1101,2.1051,2.1024,2.0995,2.0983,2.0952,2.093,2.0899,2.086,2.0834,2.079,2.0752,2.0732,2.0729,2.068,2.0689,2.069,2.0686,2.0663,2.0661,2.066,2.0678,2.0678,2.0679,0,0,2.1138,2.1113,2.1088,2.1062,2.1022,2.0997,2.0991,2.0946,2.0928,2.0889,2.0866,2.0836,2.0776,2.0746,2.0723,2.0703,2.0685,2.0692,2.0694,2.0672,2.067,2.0669,2.0661,2.0658,2.069,2.069,2.069,0,2.1146,2.1104,2.1076,2.1048,2.1026,2.1,2.0973,2.0948,2.0898,2.0882,2.088,2.0804,2.0773,2.0726,2.0721,2.0704,2.0694,2.0698,2.0674,2.0672,2.067,2.0661,2.0659,2.0691,2.0691,2.0691,2.069,0,2.1115,2.1086,2.107,2.1026,2.1002,2.0974,2.094,2.0919,2.0901,2.0876,2.0835,2.0797,2.0754,2.0741,2.0723,2.0691,2.069,2.0681,2.0676,2.067,2.0661,2.0658,2.0692,2.0692,2.0692,2.0691,0,0,2.1119,2.106,2.1055,2.1034,2.0988,2.0964,2.0934,2.0894,2.0876,2.0842,2.0814,2.0765,2.0756,2.073,2.0708,2.0689,2.0674,2.0682,2.068,2.0681,2.0635,2.0642,2.0639,2.0663,2.0662,2.0661,2.0639,0,2.1103,2.1052,2.1026,2.0985,2.0956,2.0932,2.0905,2.0873,2.0849,2.0819,2.079,2.0756,2.0748,2.0732,2.0712,2.068,2.0664,2.0682,2.0634,2.0633,2.0645,2.0634,2.0641,2.0621,2.0635,2.0635,2.0634,0,2.1077,2.1046,2.1003,2.0961,2.0948,2.0925,2.0886,2.0859,2.0821,2.0804,2.0776,2.0754,2.0719,2.0718,2.0668,2.0681,2.066,2.0641,2.064,2.0633,2.0633,2.0626,2.0614,2.0611,2.0629,2.0629,2.063,0,2.1083,2.103,2.0997,2.098,2.093,2.0915,2.0892,2.0855,2.0833,2.0798,2.0783,2.0743,2.0721,2.069,2.0658,2.066,2.061,2.0607,2.0593,2.0594,2.0583,2.0584,2.0567,2.0572,2.0572,2.0572,2.0572,0,2.1067,2.1041,2.1,2.0979,2.0949,2.0919,2.0889,2.0864,2.0831,2.0804,2.0779,2.0753,2.0713,2.0681,2.0655,2.0617,2.0607,2.0591,2.0584,2.0593,2.0595,2.0578,2.0578,2.0571,2.0571,2.0571,2.0571,0,2.1068,2.104,2.1002,2.0959,2.0947,2.0926,2.0887,2.0865,2.084,2.0806,2.0796,2.0755,2.0717,2.0682,2.063,2.0612,2.0573,2.0565,2.0587,2.0583,2.0571,2.0573,2.0541,2.0535,2.0546,2.0546,2.0546,0,2.106,2.1039,2.0994,2.0976,2.0955,2.0925,2.0903,2.0871,2.0849,2.0804,2.0787,2.0748,2.0714,2.0653,2.0617,2.0577,2.0567,2.0559,2.056,2.057,2.0565,2.0567,2.0564,2.0559,2.0559,2.0559,2.0559,0,2.1047,2.1034,2.1004,2.097,2.0944,2.0915,2.0884,2.0869,2.0832,2.0807,2.0769,2.0744,2.0692,2.0652,2.0608,2.0582,2.0563,2.0559,2.0554,2.0561,2.0574,2.0566,2.0587,2.0559,2.0559,2.0559,2.0559,2.0559,2.1042,2.1023,2.0988,2.0956,2.093,2.0902,2.0879,2.0852,2.0821,2.0778,2.0761,2.0722,2.0683,2.0623,2.0597,2.0564,2.056,2.0553,2.055,2.0549,2.055,2.0581,2.0556,2.0556,2.0556,2.0556,2.0556,0,2.1027,2.1004,2.0975,2.0934,2.0908,2.0896,2.0861,2.0839,2.0806,2.0773,2.0741,2.0697,2.0658,2.062,2.0578,2.0559,2.055,2.0549,2.0549,2.0544,2.0556,2.0565,2.0558,2.0558,2.0558,2.0558,2.0558,2.0558,2.1016,2.0983,2.0966,2.0919,2.0895,2.0859,2.084,2.0813,2.0787,2.0739,2.0708,2.0684,2.0648,2.0604,2.0567,2.0557,2.0542,2.0544,2.0531,2.0543,2.0543,2.0543,2.0551,2.0541,2.0541,2.052,2.052,2.052]}]]